Weather History for Philadelphia Wings Airport, PA

Change the Weather History Date:

Wednesday, March 27, 2013

  Actual Average (KPNE) Record (KPNE)
Temperature  
Mean Temperature 41 °F -  
Max Temperature 50 °F 54 °F 82 °F (1998)
Min Temperature 32 °F 36 °F 21 °F (2014)
Degree Days  
Heating Degree Days 24    
Moisture  
Dew Point 31 °F    
Average Humidity 69    
Maximum Humidity 100    
Minimum Humidity 37    
Precipitation  
Precipitation 0.00 in - - ()
Sea Level Pressure  
Sea Level Pressure 29.95 in    
Wind  
Wind Speed 4 mph (WNW)    
Max Wind Speed 14 mph    
Max Gust Speed 24 mph    
Visibility 10 miles    
Events      
Averages and records for this station are not official NWS values.
T = Trace of Precipitation, MM = Missing Value Source: NWS Daily Summary

Daily Weather History Graph

Daily Weather History Graph

Search for Another Location

Airport:

Trip Planner

Search our weather history database for the weather conditions in past years. The results will help you decide how hot, cold, wet, or windy it might be!

Date:

Astronomy

Mar. 27, 2013 Rise Set
Actual Time 6:52 AM EDT 7:20 PM EDT
Civil Twilight 6:25 AM EDT 7:47 PM EDT
Nautical Twilight 5:53 AM EDT 8:19 PM EDT
Astronomical Twilight 5:20 AM EDT 8:52 PM EDT
Moon 8:01 PM EDT (3/27) 6:42 AM EDT (3/27)
Length of Visible Light 13h 22m
Length of Day
12h 27m
Full, 100% of the Moon is Illuminated
Mar 27
Full
Apr 3
Last Quarter
Apr 10
New
Apr 18
First Quarter
Apr 25
Full

Hourly Weather History & Observations

Time (EDT) Temp. Windchill Dew Point Humidity Pressure Visibility Wind Dir Wind Speed Gust Speed Precip Events Conditions
12:15 AM 37.4 °F - 33.8 °F 87% 29.91 in 10.0 mi Calm Calm - N/A   Scattered Clouds
12:35 AM 37.4 °F - 33.8 °F 87% 29.91 in 10.0 mi Calm Calm - N/A   Scattered Clouds
12:55 AM 37.4 °F - 33.8 °F 87% 29.91 in 10.0 mi Calm Calm - N/A   Scattered Clouds
1:15 AM 37.4 °F - 33.8 °F 87% 29.91 in 10.0 mi Calm Calm - N/A   Scattered Clouds
1:35 AM 37.4 °F 34.9 °F 33.8 °F 87% 29.91 in 10.0 mi West 3.5 mph - N/A   Clear
1:55 AM 37.4 °F 33.8 °F 33.8 °F 87% 29.91 in 10.0 mi West 4.6 mph - N/A   Clear
2:15 AM 37.4 °F 34.9 °F 33.8 °F 87% 29.91 in 10.0 mi West 3.5 mph - N/A   Clear
2:35 AM 37.4 °F - 33.8 °F 87% 29.91 in 10.0 mi Calm Calm - N/A   Clear
2:55 AM 37.4 °F - 32.0 °F 81% 29.91 in 10.0 mi Calm Calm - N/A   Clear
3:15 AM 33.8 °F - 32.0 °F 93% 29.91 in 10.0 mi Calm Calm - N/A   Clear
3:35 AM 32.0 °F - 32.0 °F 100% 29.90 in 10.0 mi Calm Calm - N/A   Clear
3:55 AM 33.8 °F - 32.0 °F 93% 29.90 in 10.0 mi Calm Calm - N/A   Clear
4:15 AM 33.8 °F - 32.0 °F 93% 29.90 in 10.0 mi Calm Calm - N/A   Clear
4:35 AM 35.6 °F 32.8 °F 32.0 °F 87% 29.91 in 10.0 mi West 3.5 mph - N/A   Clear
4:55 AM 33.8 °F 30.8 °F 32.0 °F 93% 29.91 in 10.0 mi West 3.5 mph - N/A   Clear
5:15 AM 35.6 °F 32.8 °F 32.0 °F 87% 29.92 in 10.0 mi WSW 3.5 mph - N/A   Clear
5:35 AM 33.8 °F 30.8 °F 32.0 °F 93% 29.92 in 10.0 mi West 3.5 mph - N/A   Clear
5:55 AM 33.8 °F 30.8 °F 32.0 °F 93% 29.92 in 10.0 mi WNW 3.5 mph - N/A   Clear
6:15 AM 35.6 °F 31.7 °F 32.0 °F 87% 29.93 in 10.0 mi West 4.6 mph - N/A   Clear
6:35 AM 35.6 °F 32.8 °F 32.0 °F 87% 29.93 in 10.0 mi West 3.5 mph - N/A   Clear
6:55 AM 35.6 °F 32.8 °F 32.0 °F 87% 29.94 in 10.0 mi West 3.5 mph - N/A   Clear
7:15 AM 35.6 °F 31.7 °F 32.0 °F 87% 29.94 in 10.0 mi West 4.6 mph - N/A   Clear
7:35 AM 35.6 °F 31.7 °F 32.0 °F 87% 29.95 in 10.0 mi WNW 4.6 mph - N/A   Clear
7:55 AM 37.4 °F 32.8 °F 32.0 °F 81% 29.96 in 10.0 mi West 5.8 mph - N/A   Clear
8:15 AM 41.0 °F 37.1 °F 32.0 °F 70% 29.96 in 10.0 mi West 5.8 mph - N/A   Clear
8:35 AM 41.0 °F 37.1 °F 32.0 °F 70% 29.96 in 10.0 mi WNW 5.8 mph - N/A   Clear
8:55 AM 42.8 °F 36.6 °F 32.0 °F 66% 29.97 in 10.0 mi WNW 11.5 mph 17.3 mph N/A   Clear
9:15 AM 42.8 °F 37.5 °F 32.0 °F 66% 29.97 in 10.0 mi WNW 9.2 mph - N/A   Clear
9:35 AM 42.8 °F 37.5 °F 30.2 °F 61% 29.97 in 10.0 mi WNW 9.2 mph 17.3 mph N/A   Clear
9:55 AM 44.6 °F 38.8 °F 30.2 °F 57% 29.97 in 10.0 mi WNW 11.5 mph 16.1 mph N/A   Clear
10:15 AM 44.6 °F 39.7 °F 28.4 °F 53% 29.96 in 10.0 mi WNW 9.2 mph 17.3 mph N/A   Clear
10:35 AM 46.4 °F 41.5 °F 28.4 °F 50% 29.96 in 10.0 mi West 10.4 mph 18.4 mph N/A   Clear
10:55 AM 46.4 °F 42.4 °F 30.2 °F 53% 29.96 in 10.0 mi West 8.1 mph 18.4 mph N/A   Clear
11:15 AM 46.4 °F 41.9 °F 30.2 °F 53% 29.96 in 10.0 mi West 9.2 mph 19.6 mph N/A   Scattered Clouds
11:35 AM 48.2 °F - 30.2 °F 50% 29.96 in 10.0 mi West 12.7 mph 18.4 mph N/A   Scattered Clouds
1:55 PM 48.2 °F - 26.6 °F 43% 29.93 in 10.0 mi WNW 9.2 mph 21.9 mph N/A   Scattered Clouds
2:35 PM 48.2 °F - 26.6 °F 43% 29.93 in 10.0 mi WNW 12.7 mph 18.4 mph N/A   Scattered Clouds
2:55 PM 50.0 °F - 26.6 °F 40% 29.93 in 10.0 mi NW 11.5 mph 16.1 mph N/A   Scattered Clouds
3:35 PM 50.0 °F - 24.8 °F 37% 29.92 in 10.0 mi WNW 8.1 mph - N/A   Scattered Clouds
3:55 PM 50.0 °F - 26.6 °F 40% 29.92 in 10.0 mi WNW 13.8 mph 24.2 mph N/A   Scattered Clouds
4:15 PM 50.0 °F - 26.6 °F 40% 29.92 in 10.0 mi NW 8.1 mph 18.4 mph N/A   Scattered Clouds
4:35 PM 50.0 °F - 26.6 °F 40% 29.92 in 10.0 mi WNW 10.4 mph 17.3 mph N/A   Scattered Clouds
4:55 PM 50.0 °F - 26.6 °F 40% 29.93 in 10.0 mi NW 8.1 mph 23.0 mph N/A   Scattered Clouds
5:15 PM 46.4 °F 44.3 °F 30.2 °F 53% 29.93 in 10.0 mi NW 4.6 mph 18.4 mph N/A   Scattered Clouds
5:35 PM 50.0 °F - 28.4 °F 43% 29.93 in 10.0 mi WNW 6.9 mph - N/A   Scattered Clouds
5:55 PM 44.6 °F 40.2 °F 32.0 °F 61% 29.96 in 10.0 mi North 8.1 mph 24.2 mph N/A   Mostly Cloudy
6:15 PM 42.8 °F - 33.8 °F 70% 29.96 in 10.0 mi Calm Calm - N/A   Mostly Cloudy
6:35 PM 44.6 °F - 32.0 °F 61% 29.96 in 10.0 mi Calm Calm - N/A   Clear
6:55 PM 44.6 °F 42.2 °F 32.0 °F 61% 29.96 in 10.0 mi North 4.6 mph - N/A   Scattered Clouds
7:15 PM 44.6 °F - 32.0 °F 61% 29.97 in 10.0 mi Calm Calm - N/A   Mostly Cloudy
7:35 PM 44.6 °F - 32.0 °F 61% 29.98 in 10.0 mi Calm Calm - N/A   Scattered Clouds
7:55 PM 44.6 °F - 32.0 °F 61% 29.98 in 10.0 mi Calm Calm - N/A   Scattered Clouds
8:15 PM 44.6 °F 43.1 °F 32.0 °F 61% 29.99 in 10.0 mi WNW 3.5 mph - N/A   Scattered Clouds
8:35 PM 44.6 °F 42.2 °F 32.0 °F 61% 29.99 in 10.0 mi North 4.6 mph - N/A   Mostly Cloudy
8:55 PM 42.8 °F 39.3 °F 32.0 °F 66% 30.00 in 10.0 mi NNW 5.8 mph - N/A   Scattered Clouds
9:15 PM 42.8 °F - 32.0 °F 66% 30.01 in 10.0 mi Calm Calm - N/A   Scattered Clouds
9:35 PM 42.8 °F 41.1 °F 32.0 °F 66% 30.01 in 10.0 mi WNW 3.5 mph - N/A   Clear
9:55 PM 42.8 °F 40.1 °F 32.0 °F 66% 30.02 in 10.0 mi West 4.6 mph - N/A   Clear
10:15 PM 42.8 °F 40.1 °F 30.2 °F 61% 30.02 in 10.0 mi West 4.6 mph - N/A   Scattered Clouds
10:35 PM 41.0 °F 38.0 °F 30.2 °F 65% 30.02 in 10.0 mi WNW 4.6 mph - N/A   Clear
10:55 PM 41.0 °F 38.0 °F 30.2 °F 65% 30.03 in 10.0 mi WNW 4.6 mph - N/A   Clear
11:15 PM 41.0 °F - 30.2 °F 65% 30.03 in 10.0 mi Calm Calm - N/A   Scattered Clouds
11:35 PM 39.2 °F 35.9 °F 30.2 °F 70% 30.03 in 10.0 mi West 4.6 mph - N/A   Mostly Cloudy
11:55 PM 39.2 °F 37.0 °F 30.2 °F 70% 30.03 in 10.0 mi WNW 3.5 mph - N/A   Scattered Clouds